Flag for Germany Weather past 2 weeks in Ganderkesee, Lower Saxony, Germany

Now
37 °F

Partly sunny.


Feels Like: 32 °F
Forecast: 36 / 41 °F
Wind: 7 mph from West

Location: Bremen Airport

Current Time: Jan 25, 2015 at 12:07:02 PM

Latest Report: Jan 25, 2015 at 11:20 AM


Visibility: N/A

Pressure: 30.30 "Hg

Humidity: 93%

Dew point: 36 °F

Location of GanderkeseeLocation

Historic Weather in Ganderkesee — Graph

°F

Ganderkesee temperature yesterday

Maximum temperature yesterday: 36 °F (at 3:20 PM)
Minimum temperature yesterday: 28 °F (at 12:20 AM)
Average temperature yesterday: 31 °F

Past Weeks' High & Low Weather Summary

 TemperatureHumidityPressure
High54 °F (Jan 10, 11:20 AM)100% (Jan 14, 5:20 PM)30.33 "Hg (Jan 14, 5:20 PM)
Low21 °F (Jan 21, 7:20 AM)58% (Jan 10, 4:20 PM)29.36 "Hg (Jan 15, 2:20 PM)
Average36 °F89%29.86 "Hg
* Reported Jan 10 10:20 AM — Jan 25 10:50 AM, Ganderkesee, Weather by CustomWeather, © 2014

Note: Actual official high and low records may vary slightly from our data, if they occured in-between our weather recording intervals... More about our weather records

Advertising

Ganderkesee weather history for previous 24 hours

 ConditionsComfort  
Time TempWeatherWind HumidityBarometerVisibility
10:50 AM
Jan 25
36 °FPartly sunny.9 mph100%30.30 "Hg6 mi
10:20 AM36 °FBroken clouds.8 mph100%30.30 "HgN/A
9:50 AM34 °FBroken clouds.6 mph100%30.30 "HgN/A
9:20 AM34 °FBroken clouds.5 mph100%30.30 "HgN/A
8:50 AM34 °FPartly sunny.6 mph100%30.30 "HgN/A
8:20 AM34 °FBroken clouds.5 mph93%30.30 "HgN/A
7:50 AM34 °FSprinkles. Passing clouds.7 mph100%30.27 "HgN/A
7:20 AM32 °FSprinkles. Passing clouds.3 mph100%30.27 "Hg2 mi
6:50 AM32 °FPassing clouds.3 mph100%30.27 "HgN/A
6:20 AM28 °FPassing clouds.1 mph100%30.27 "HgN/A
5:50 AM28 °FFog.7 mph100%30.27 "HgN/A
5:20 AM25 °FFog.6 mph100%30.27 "HgN/A
4:20 AM28 °FFog.5 mph100%30.24 "HgN/A
3:50 AM30 °FFog.7 mph100%30.24 "HgN/A
3:20 AM28 °FFog.5 mph100%30.24 "HgN/A
2:50 AM27 °FFog.5 mph100%30.24 "HgN/A
2:20 AM28 °FFog.5 mph100%30.24 "HgN/A
1:50 AM27 °FFog.6 mph100%30.24 "HgN/A
1:20 AM28 °FFog.6 mph100%30.24 "HgN/A
12:50 AM27 °FFog.7 mph100%30.24 "HgN/A
12:20 AM27 °FFog.5 mph100%30.21 "HgN/A
11:50 PM
Jan 24
30 °FPassing clouds.3 mph100%30.21 "HgN/A
11:20 PM28 °FPassing clouds.6 mph100%30.21 "HgN/A
10:50 PM30 °FPassing clouds.5 mph93%30.21 "HgN/A
10:20 PM28 °FPassing clouds.7 mph93%30.18 "HgN/A
9:50 PM32 °FPassing clouds.9 mph87%30.18 "HgN/A
9:20 PM30 °FPassing clouds.9 mph100%30.18 "HgN/A
8:50 PM30 °FPassing clouds.7 mph100%30.18 "HgN/A
8:20 PM30 °FPassing clouds.7 mph100%30.15 "HgN/A
7:50 PM30 °FPassing clouds.9 mph100%30.15 "HgN/A
7:20 PM32 °FPassing clouds.6 mph93%30.15 "HgN/A
6:50 PM34 °FPassing clouds.8 mph93%30.12 "HgN/A
6:20 PM34 °FPassing clouds.6 mph93%30.12 "HgN/A
5:50 PM34 °FPassing clouds.9 mph100%30.09 "HgN/A
5:20 PM34 °FPassing clouds.8 mph93%30.09 "Hg4 mi
4:50 PM34 °FPassing clouds.8 mph100%30.07 "Hg4 mi
4:20 PM36 °FPassing clouds.8 mph93%30.07 "Hg4 mi
3:50 PM34 °FScattered clouds.7 mph100%30.04 "Hg4 mi
3:20 PM36 °FScattered clouds.6 mph100%30.04 "Hg3 mi
2:50 PM34 °FFog.5 mph100%30.04 "Hg3 mi
2:20 PM34 °FFog.8 mph100%30.01 "Hg3 mi
1:50 PM34 °FFog.8 mph93%30.01 "Hg3 mi
1:20 PM32 °FLight snow. Ice fog.8 mph100%30.01 "Hg1 mi
12:50 PM32 °FLight snow. Ice fog.8 mph100%30.01 "Hg1 mi
12:20 PM32 °FSnow. Ice fog.8 mph100%30.01 "Hg1 mi
Weather by CustomWeather, © 2014

See weather overviewHow to use our weather pages